Location: ??
(31.9467°N, 34.8903°E)
Time: 18:50:45
(UTC+00:00)

SAR-Lupe-4 - Pass Details

Date: 29 October 2020
Orbit: 481 x 484 km, 98.2° (Epoch: 25 November)

Event Time Altitude Azimuth Distance (km) Brightness Sun altitude
Rises 15:33:17 0° 10° (N) 2,545 7.0 -9.1°
Reaches altitude 10° 15:35:21 10° 8° (N) 1,662 6.1 -9.6°
Maximum altitude 15:38:54 74° 284° (WNW) 505 3.8 -10.3°
Drops below altitude 10° 15:42:27 10° 199° (SSW) 1,651 6.6 -11.0°
Sets 15:44:30 0° 197° (SSW) 2,527 7.6 -11.5°
